TimePDT,TemperatureF,Dew PointF,Humidity,Sea Level PressureIn,VisibilityMPH,Wind Direction,Wind SpeedMPH,Gust SpeedMPH,PrecipitationIn,Events,Conditions,WindDirDegrees,DateUTC
12:56 AM,43.0,19.0,38,30.30,10.0,SE,3.5,-,N/A,,Clear,140,2012-10-05 07:56:00
1:56 AM,41.0,19.0,41,30.31,10.0,Calm,Calm,-,N/A,,Clear,0,2012-10-05 08:56:00
2:56 AM,41.0,19.9,43,30.32,10.0,Calm,Calm,-,N/A,,Clear,0,2012-10-05 09:56:00
3:56 AM,39.9,19.9,45,30.32,10.0,Calm,Calm,-,N/A,,Clear,0,2012-10-05 10:56:00
4:56 AM,37.0,19.0,48,30.35,10.0,Calm,Calm,-,N/A,,Clear,0,2012-10-05 11:56:00
5:56 AM,37.9,21.0,51,30.35,10.0,SW,3.5,-,N/A,,Clear,220,2012-10-05 12:56:00
6:56 AM,36.0,19.9,52,30.37,10.0,Calm,Calm,-,N/A,,Clear,0,2012-10-05 13:56:00
7:56 AM,39.0,21.0,49,30.38,10.0,Calm,Calm,-,N/A,,Clear,0,2012-10-05 14:56:00
8:56 AM,42.1,25.0,51,30.40,10.0,Calm,Calm,-,N/A,,Clear,0,2012-10-05 15:56:00
9:56 AM,46.0,26.1,46,30.40,10.0,Calm,Calm,-,N/A,,Clear,0,2012-10-05 16:56:00
10:56 AM,50.0,25.0,38,30.39,10.0,Calm,Calm,-,N/A,,Clear,0,2012-10-05 17:56:00
11:56 AM,53.1,27.0,37,30.37,10.0,Variable,3.5,-,N/A,,Clear,0,2012-10-05 18:56:00
12:56 PM,55.9,26.1,32,30.35,10.0,Calm,Calm,-,N/A,,Clear,0,2012-10-05 19:56:00
1:56 PM,61.0,25.0,25,30.32,10.0,NNW,4.6,-,N/A,,Clear,330,2012-10-05 20:56:00
2:56 PM,61.0,21.9,22,30.30,10.0,WNW,3.5,-,N/A,,Clear,300,2012-10-05 21:56:00
3:56 PM,64.0,12.0,13,30.28,8.0,North,5.8,-,N/A,,Clear,10,2012-10-05 22:56:00
4:56 PM,63.0,15.1,16,30.28,8.0,SW,3.5,-,N/A,,Clear,230,2012-10-05 23:56:00
5:56 PM,60.1,14.0,16,30.28,8.0,West,4.6,-,N/A,,Clear,260,2012-10-06 00:56:00
6:56 PM,57.9,15.1,19,30.29,9.0,Calm,Calm,-,N/A,,Clear,0,2012-10-06 01:56:00
7:56 PM,52.0,15.1,23,30.29,9.0,SSW,8.1,-,N/A,,Clear,200,2012-10-06 02:56:00
8:56 PM,50.0,15.1,25,30.30,9.0,Calm,Calm,-,N/A,,Clear,0,2012-10-06 03:56:00
9:56 PM,46.0,16.0,30,30.31,10.0,ESE,4.6,-,N/A,,Clear,120,2012-10-06 04:56:00
10:56 PM,46.0,15.1,29,30.32,9.0,Variable,4.6,-,N/A,,Clear,0,2012-10-06 05:56:00
11:56 PM,43.0,15.1,32,30.33,7.0,SSE,3.5,-,N/A,,Clear,160,2012-10-06 06:56:00